Wind_Speed
40 37 39 40 48 53 55 60 60 60 64 70 60 65 65 69 70 74 76 75 77 78 78 76 75 74 73 71 70 70 72 75
55 53 53 53 49 49 53 57 57 60 62 64 69 73 70 69 71 65 70 71 73 73 73 70 69 70 72 71 73 74 77 79
60 58 52 59 56 51 54 55 62 64 61 61 64 67 67 64 61 63 66 67 66 64 65 67 69 72 75 75 77 81 84 86
47 51 58 50 54 53 55 59 59 60 62 60 56 54 54 57 59 61 61 59 60 63 67 71 74 76 76 77 79 75 75 81
38 49 58 57 58 55 52 51 53 50 49 48 49 52 50 54 55 54 55 59 64 68 71 74 75 76 76 75 73 76 82 87
38 39 43 43 45 47 47 45 42 42 40 41 42 44 46 47 48 53 57 61 62 61 64 67 69 71 70 74 78 81 86 91
38 40 45 45 46 47 37 34 34 37 38 34 40 45 47 49 53 56 60 62 65 67 68 67 65 70 73 77 81 86 91 93
36 36 38 41 43 41 33 31 31 37 37 40 45 48 50 54 57 59 63 66 67 69 68 67 71 75 79 82 86 89 92 93
38 34 34 33 31 25 29 29 32 38 42 46 48 51 54 56 59 63 65 68 70 70 68 72 76 81 83 86 92 91 88 91
34 30 30 28 26 28 32 34 39 44 45 47 50 53 55 58 60 64 68 69 68 69 72 77 82 85 85 91 92 90 91 96
28 29 29 32 33 33 33 39 42 45 47 51 52 53 55 59 64 67 66 68 70 73 79 83 86 88 91 95 92 92 96 102
25 23 24 28 30 33 38 42 46 47 48 50 51 54 58 63 64 65 69 72 75 79 84 86 88 92 96 93 95 98 102 105
25 27 29 30 34 39 44 46 46 47 50 52 55 60 63 66 68 70 72 76 81 85 87 89 92 97 94 96 101 103 105 106
30 30 32 34 37 40 43 47 51 54 55 58 60 65 69 68 69 74 79 84 87 90 91 94 98 94 96 101 102 104 106 105
28 30 34 37 38 41 43 52 55 58 60 62 65 70 70 71 74 80 85 87 89 92 94 98 95 96 101 102 107 107 105 105
31 34 38 38 42 47 52 55 58 61 63 66 70 71 72 74 79 84 87 89 90 92 97 94 97 101 102 106 106 106 107 108
36 38 40 43 48 51 54 58 59 62 66 70 72 74 77 81 85 87 89 90 92 97 97 97 100 101 104 108 110 110 110 109
39 43 45 49 52 54 57 59 62 65 69 72 75 78 82 87 89 90 93 93 96 97 99 104 104 109 112 114 113 112 110 108
44 48 51 53 55 58 60 63 66 70 73 75 79 84 89 91 93 94 96 97 98 98 104 104 108 113 115 115 114 112 113 110
Wind_Direction
215 234 243 244 237 237 240 240 246 255 256 259 266 262 268 272 276 284 287 287 288 289 290 291 293 296 297 296 294 294 293 295
231 235 240 243 249 246 244 250 255 261 269 270 269 270 279 284 284 288 286 286 286 289 292 294 295 294 294 292 292 293 294 294
229 234 241 244 248 253 255 260 263 270 274 276 277 278 283 283 284 284 283 285 290 293 294 293 292 291 290 291 291 292 291 291
247 240 239 243 249 254 258 263 265 270 271 272 273 275 279 280 281 285 288 291 292 292 292 291 290 291 293 293 294 295 298 301
259 253 248 248 255 257 260 265 267 268 271 275 279 279 281 283 286 290 292 293 292 292 292 293 293 294 295 296 298 301 302 302
262 260 260 258 259 270 279 276 271 271 275 277 280 281 285 288 290 290 291 293 295 294 298 300 302 302 301 301 302 301 302 302
257 261 264 269 273 272 268 262 262 271 274 276 274 287 287 287 287 290 292 294 296 302 304 306 305 304 303 302 300 300 302 303
259 258 260 264 268 265 265 267 267 272 278 281 285 284 284 286 290 291 295 299 301 304 303 304 305 306 305 305 304 304 304 305
268 265 259 268 261 258 271 266 270 276 276 278 281 285 287 290 291 297 299 300 301 301 300 304 306 307 307 307 309 308 307 307
271 271 262 267 266 277 270 275 267 274 281 285 287 289 288 292 297 298 299 301 302 303 304 306 307 308 308 310 311 309 309 308
261 263 269 270 275 274 279 278 280 281 281 284 287 292 296 298 299 301 302 304 305 307 308 310 310 310 312 312 311 310 309 309
265 269 272 274 279 281 280 279 278 281 286 292 296 297 299 301 302 303 305 305 308 311 312 312 312 313 313 312 311 310 310 311
269 271 276 281 282 282 280 280 283 289 293 296 297 299 303 305 305 304 306 309 312 314 315 313 313 313 312 311 312 313 315 314
265 273 280 284 287 289 295 293 295 297 300 301 303 305 306 306 307 309 312 313 315 316 315 313 313 311 311 313 314 314 313 310
276 281 286 288 289 294 298 304 305 304 303 302 303 305 305 309 311 313 314 314 315 314 313 313 312 311 313 315 316 315 312 311
275 277 279 287 299 301 301 302 300 299 299 300 301 304 307 311 313 313 314 314 313 311 312 312 313 314 315 316 315 314 314 312
279 286 293 296 296 297 296 295 297 297 298 300 303 306 310 312 312 313 313 312 312 312 312 312 311 312 316 316 317 317 315 313
279 285 289 291 292 292 294 296 295 297 300 303 305 308 310 311 312 312 312 312 312 313 313 313 316 318 318 319 317 316 315 316
283 287 289 291 293 296 297 297 297 299 302 304 306 308 310 311 312 313 312 314 313 312 313 316 319 319 318 318 317 318 318 317
Height
10653 10657 10661 10663 10667 10667 10667 10668 10668 10668 10663 10661 10659 10658 10655 10653 10650 10643 10637 10631 10628 10624 10619 10612 10606 10600 10592 10585 10579 10573 10566 10556
10651 10654 10655 10656 10659 10661 10660 10659 10657 10655 10652 10651 10649 10647 10645 10641 10637 10630 10626 10621 10616 10611 10605 10600 10594 10588 10580 10574 10568 10560 10554 10542
10646 10649 10651 10653 10655 10654 10653 10651 10650 10646 10644 10641 10639 10635 10632 10630 10625 10622 10618 10612 10606 10600 10593 10589 10584 10576 10570 10564 10556 10547 10538 10528
10641 10646 10648 10649 10648 10648 10647 10643 10642 10637 10635 10633 10631 10626 10625 10620 10616 10611 10606 10601 10595 10590 10584 10579 10572 10563 10556 10549 10540 10530 10520 10510
10632 10635 10636 10638 10641 10639 10638 10636 10633 10630 10626 10623 10620 10613 10614 10609 10605 10600 10595 10591 10585 10579 10573 10565 10557 10548 10541 10532 10523 10514 10504 10493
10625 10624 10627 10631 10634 10630 10629 10626 10621 10618 10615 10615 10610 10607 10603 10599 10596 10592 10587 10581 10573 10566 10560 10552 10543 10534 10525 10515 10507 10498 10488 10476
10623 10621 10620 10622 10622 10621 10619 10615 10612 10610 10608 10608 10603 10599 10595 10591 10588 10583 10576 10568 10561 10553 10545 10537 10530 10519 10511 10502 10493 10483 10469 10457
10615 10616 10615 10615 10613 10610 10609 10607 10608 10604 10601 10598 10594 10592 10588 10583 10578 10572 10563 10554 10546 10539 10531 10523 10514 10504 10494 10484 10473 10461 10447 10434
10604 10606 10605 10604 10602 10600 10598 10598 10599 10596 10592 10590 10587 10582 10579 10573 10566 10558 10548 10541 10534 10526 10517 10508 10498 10487 10475 10464 10451 10437 10424 10411
10593 10595 10594 10595 10592 10592 10591 10589 10589 10588 10585 10582 10578 10573 10567 10561 10553 10545 10536 10529 10520 10512 10502 10492 10480 10468 10456 10444 10429 10415 10401 10386
10587 10587 10586 10586 10585 10584 10582 10582 10580 10578 10576 10572 10568 10562 10555 10548 10539 10531 10522 10513 10503 10494 10483 10470 10458 10444 10431 10417 10404 10392 10377 10360
10580 10579 10580 10579 10578 10577 10575 10573 10571 10569 10565 10559 10553 10547 10541 10534 10525 10515 10506 10496 10486 10475 10462 10448 10435 10422 10408 10394 10381 10367 10352 10334
10573 10574 10574 10573 10571 10569 10566 10562 10560 10556 10550 10544 10539 10532 10525 10516 10507 10497 10487 10477 10466 10454 10439 10425 10414 10401 10386 10372 10357 10341 10326 10310
10568 10567 10565 10564 10562 10558 10554 10548 10543 10539 10534 10529 10522 10513 10506 10498 10489 10477 10467 10455 10442 10430 10417 10404 10393 10379 10365 10351 10335 10320 10304 10287
10561 10559 10556 10555 10553 10550 10544 10538 10531 10526 10519 10512 10505 10498 10491 10483 10473 10462 10450 10438 10426 10413 10399 10386 10372 10359 10343 10329 10313 10294 10278 10261
10553 10551 10549 10547 10544 10541 10534 10528 10522 10515 10509 10501 10493 10485 10476 10468 10458 10447 10435 10423 10411 10397 10383 10368 10350 10335 10322 10307 10288 10269 10249 10230
10543 10540 10538 10538 10535 10531 10525 10517 10511 10505 10497 10488 10479 10469 10460 10452 10442 10431 10419 10406 10392 10377 10359 10346 10333 10315 10297 10279 10258 10238 10220 10202
10535 10533 10531 10528 10523 10517 10511 10505 10499 10491 10483 10474 10463 10454 10445 10435 10424 10412 10398 10386 10371 10353 10336 10321 10303 10283 10265 10247 10230 10213 10193 10174
10526 10523 10520 10514 10508 10502 10497 10489 10482 10475 10467 10457 10448 10437 10427 10415 10402 10389 10376 10361 10346 10331 10314 10296 10278 10258 10240 10222 10205 10185 10165 10148